User: anonymous   Login
Location: Caltech
(34.1382°N, 118.1253°W)
Time: 16:06:56
(UTC-07:00)
Language:

Cosmos 1025 Rocket - Orbit

View from above orbital plane
View from above orbital plane
View from above satellite
View from above satellite

Ground track
Ground track

The orbit data is extracted from the following two-line orbital elements,

1 10974U 78067B   16205.22192360  .00000131  00000-0  11801-4 0  9998
2 10974  82.4839 120.7472 0017394 358.8351   1.2822 14.87168843 58667
Epoch (UTC): 23 July 2016 05:19:34
Eccentricity: 0.0017394
inclination: 82.4839°
perigee height: 594 km
apogee height: 619 km
right ascension of ascending node: 120.7472°
argument of perigee: 358.8351°
revolutions per day: 14.87168843
mean anomaly at epoch: 1.2822°
orbit number at epoch: 5866

The dashed part of the orbit path shows where the satellite is in the earth's shadow,  

DLR